Location: Poughquag
(41.6090°N, 73.6820°W)
Time: 08:52:10
(UTC-05:00)

SR - Pass Details

Date: 08 December 2023
Orbit: 574 x 868 km, 66.7° (Epoch: 25 February)

Event Time Altitude Azimuth Distance (km) Brightness Sun altitude
Rises 17:45:36 0° 338° (NNW) 3,457 ? -14.7°
Reaches altitude 10° 17:48:48 10° 354° (N) 2,500 ? -15.3°
Maximum altitude 17:53:04 21° 42° (NE) 1,824 ? -16.0°
Enters shadow 17:53:15 21° 44° (NE) 1,824 ? -16.1°
Drops below altitude 10° 17:57:10 10° 89° (E) 2,400 - -16.8°
Sets 18:00:09 0° 106° (ESE) 3,278 - -17.3°
